Home   Weather   Yavatmal   Past weeks

Flag for India Past Weather in Yavatmal, Maharashtra, India — Yesterday and Last 2 Weeks

Now
84 °F

Haze.


Feels Like: 81 °F
Forecast: 54 / 81 °F
Wind: 3 mph from Northeast

Location: Nagpur Sonegaon

Current Time: Dec 9, 2016 at 3:29:25 pm

Latest Report: Dec 9, 2016 at 2:30 pm


Visibility: 2 mi

Pressure: 29.86 "Hg

Humidity: 20%

Dew Point: 39 °F

Location of YavatmalLocation

Past Weather in Yavatmal — Graph

°F

Yavatmal Temperature Yesterday

Maximum temperature yesterday: 82 °F (at 1:00 pm)
Minimum temperature yesterday: 52 °F (at 6:00 am)
Average temperature yesterday: 66 °F

High & Low Weather Summary for the Past Weeks

 TemperatureHumidityPressure
High90 °F (Nov 27, 1:30 pm)100% (Dec 9, 1:30 am)30.15 "Hg (Dec 9, 1:30 am)
Low50 °F (Dec 9, 5:30 am)17% (Dec 5, 12:30 pm)29.89 "Hg (Nov 25, 3:00 pm)
Average71 °F60%30.00 "Hg
* Reported Nov 24 1:30 pm — Dec 9 2:00 pm, Yavatmal, Weather by CustomWeather, © 2016

Note: Actual official high and low records may vary slightly from our data, if they occured in-between our weather recording intervals... More about our weather records

Advertising

Yavatmal Weather History for the Previous 24 Hours

Scroll right to see more
 ConditionsComfort  
Time TempWeatherWind HumidityBarometerVisibility
2:00 pm
Fri, Dec 9
82 °FHaze.2 mph30%29.89 "Hg2 mi
1:00 pm82 °FHaze.3 mph26%29.92 "Hg2 mi
12:30 pm79 °FHaze.2 mph26%29.95 "Hg2 mi
12:00 pm77 °FHaze.6 mph28%29.95 "Hg2 mi
11:30 am79 °FHaze.2 mph34%29.98 "Hg2 mi
11:00 am73 °FHaze.5 mph36%29.98 "Hg2 mi
10:30 am72 °FHaze.6 mph38%30.01 "Hg2 mi
10:00 am70 °FHaze.6 mph43%30.01 "Hg2 mi
9:30 am68 °FHaze.5 mph46%30.01 "Hg2 mi
9:00 am66 °FHaze.5 mph49%30.01 "Hg2 mi
8:30 am61 °FHaze.No wind63%30.01 "Hg2 mi
8:00 am54 °FHaze.No wind82%30.01 "Hg2 mi
7:30 am50 °FHaze.3 mph88%29.98 "Hg1 mi
7:00 am50 °FHaze.5 mph88%29.98 "Hg1 mi
6:30 am50 °FHaze.6 mph88%29.95 "Hg1 mi
6:00 am50 °FHaze.5 mph82%29.95 "Hg1 mi
5:30 am50 °FHaze.2 mph82%29.95 "Hg1 mi
5:00 am52 °FHaze.No wind82%29.95 "Hg1 mi
4:30 am54 °FHaze.No wind77%29.95 "Hg1 mi
4:00 am54 °FHaze.2 mph77%29.92 "Hg1 mi
3:30 am55 °FHaze.2 mph72%29.92 "Hg1 mi
3:00 am55 °FHaze.3 mph72%29.92 "Hg1 mi
1:30 am59 °FHaze.No wind100%29.95 "Hg1 mi
1:00 am59 °FHaze.No wind63%29.95 "Hg1 mi
12:30 am61 °FHaze.No wind63%29.98 "Hg1 mi
12:00 am61 °FHaze.No wind59%29.98 "Hg1 mi
11:30 pm
Thu, Dec 8
63 °FHaze.No wind59%29.98 "Hg1 mi
10:35 pm63 °FHaze.No wind77%29.98 "Hg1 mi
10:00 pm63 °FHaze.No wind77%30.01 "Hg1 mi
9:30 pm64 °FHaze.3 mph68%29.98 "Hg1 mi
9:00 pm66 °FHaze.2 mph64%29.98 "Hg1 mi
8:00 pm70 °FHaze.No wind53%29.98 "Hg1 mi
7:30 pm72 °FHaze.No wind50%29.95 "Hg1 mi
7:00 pm72 °FHaze.No wind38%29.95 "Hg1 mi
4:00 pm82 °FHaze.5 mph30%29.92 "Hg2 mi
Weather by CustomWeather, © 2016

See weather overviewHow to use our weather pages